Fort Lewis, WA

1:41 AM PDT on July 28, 2017 (GMT -0700)
Gray Army Air Field

Weather History for KGRF - March, 2013

Change the Weather History Date:

Tuesday, March 12, 2013

  Actual Average Record
Temperature  
Mean Temperature 52 °F -  
Max Temperature 55 °F 51 °F 65 °F (2015)
Min Temperature 49 °F 36 °F 21 °F (2009)
Degree Days  
Heating Degree Days 13    
Growing Degree Days 2 (Base 50)    
Moisture  
Dew Point 49 °F    
Average Humidity 89    
Maximum Humidity 100    
Minimum Humidity 74    
Precipitation  
Precipitation 0.07 in - - ()
Sea Level Pressure  
Sea Level Pressure 30.13 in    
Wind  
Wind Speed 12 mph (SSE)    
Max Wind Speed 17 mph    
Max Gust Speed 24 mph    
Visibility 10 miles    
Events Rain    
Averages and records for this station are not official NWS values.
T = Trace of Precipitation, MM = Missing Value Source: NWS Daily Summary

Daily Weather History Graph

Daily Weather History Graph

Search for Another Location

Airport or City:

Trip Planner

Search our weather history database for the weather conditions in past years. The results will help you decide how hot, cold, wet, or windy it might be!

Date:

Astronomy

Mar. 12, 2013 Rise Set
Actual Time 7:28 AM PDT 7:12 PM PDT
Civil Twilight 6:58 AM PDT 7:42 PM PDT
Nautical Twilight 6:22 AM PDT 8:18 PM PDT
Astronomical Twilight 5:46 AM PDT 8:54 PM PDT
Moon 7:31 AM PDT (3/12) 8:41 PM PDT (3/12)
Length of Visible Light 12h 44m
Length of Day
11h 43m
New Moon, 1% of the Moon is Illuminated
Mar 12
New Moon
Mar 19
First Quarter
Mar 27
Full
Apr 2
Last Quarter
Apr 10
New

Hourly Weather History & Observations

Time (PDT) Temp. Dew Point Humidity Pressure Visibility Wind Dir Wind Speed Gust Speed Precip Events Conditions
12:58 AM 49.3 °F 48.9 °F 99% 30.18 in 10.0 mi South 12.7 mph - N/A   Overcast
1:03 AM 50.0 °F 50.0 °F 100% 30.16 in 10.0 mi South 12.7 mph - N/A   Overcast
1:53 AM 50.0 °F 50.0 °F 100% 30.16 in 10.0 mi SSE 11.5 mph - N/A   Overcast
1:58 AM 49.5 °F 49.3 °F 99% 30.17 in 10.0 mi SSE 11.5 mph - N/A   Overcast
2:11 AM 50.0 °F 50.0 °F 100% 30.15 in 10.0 mi South 10.4 mph - N/A   Light Drizzle
2:20 AM 50.0 °F 50.0 °F 100% 30.15 in 10.0 mi South 11.5 mph - N/A   Mostly Cloudy
2:30 AM 50.0 °F 50.0 °F 100% 30.16 in 10.0 mi South 10.4 mph - N/A   Overcast
2:40 AM 50.0 °F 50.0 °F 100% 30.16 in 10.0 mi South 12.7 mph - N/A   Mostly Cloudy
2:58 AM 50.2 °F 49.5 °F 97% 30.18 in 10.0 mi South 10.4 mph - 0.00 in   Overcast
3:48 AM 50.0 °F 50.0 °F 100% 30.14 in 10.0 mi South 10.4 mph - N/A   Overcast
3:58 AM 50.0 °F 49.5 °F 98% 30.16 in 10.0 mi SSE 12.7 mph - N/A   Overcast
4:33 AM 50.0 °F 50.0 °F 100% 30.13 in 10.0 mi SSE 10.4 mph - N/A   Overcast
4:53 AM 50.0 °F 50.0 °F 100% 30.12 in 10.0 mi SSE 12.7 mph - N/A   Overcast
4:58 AM 50.0 °F 49.8 °F 99% 30.14 in 10.0 mi SSE 13.8 mph - N/A   Overcast
5:28 AM 50.0 °F 50.0 °F 100% 30.12 in 10.0 mi SSE 11.5 mph - N/A   Overcast
5:58 AM 49.8 °F 49.6 °F 99% 30.14 in 10.0 mi SSE 10.4 mph - 0.01 in   Overcast
6:58 AM 50.2 °F 49.1 °F 96% 30.13 in 10.0 mi SSE 11.5 mph - N/A   Overcast
7:58 AM 50.4 °F 48.7 °F 94% 30.13 in 10.0 mi South 8.1 mph - N/A   Overcast
8:58 AM 50.9 °F 48.4 °F 91% 30.13 in 10.0 mi SSE 12.7 mph - N/A   Overcast
9:58 AM 51.6 °F 48.4 °F 89% 30.14 in 10.0 mi SSE 11.5 mph - N/A   Overcast
10:58 AM 53.1 °F 47.1 °F 80% 30.13 in 10.0 mi SSE 15.0 mph - N/A   Overcast
11:58 AM 54.7 °F 46.6 °F 74% 30.13 in 10.0 mi SSE 17.3 mph 24.2 mph N/A   Mostly Cloudy
12:40 PM 53.6 °F 46.4 °F 77% 30.12 in 10.0 mi SSE 12.7 mph - N/A   Light Drizzle
12:50 PM 53.6 °F 46.4 °F 77% 30.12 in 10.0 mi SSE 12.7 mph - N/A   Overcast
12:58 PM 53.2 °F 47.8 °F 82% 30.14 in 10.0 mi South 16.1 mph 20.7 mph 0.00 in   Overcast
1:58 PM 54.1 °F 48.2 °F 80% 30.13 in 10.0 mi South 12.7 mph - 0.01 in   Overcast
2:53 PM 55.4 °F 48.2 °F 77% 30.10 in 10.0 mi South 13.8 mph 23.0 mph N/A   Mostly Cloudy
2:58 PM 55.0 °F 48.6 °F 79% 30.12 in 10.0 mi SSE 15.0 mph - N/A   Mostly Cloudy
3:13 PM 55.4 °F 48.2 °F 77% 30.10 in 10.0 mi SSE 16.1 mph - N/A   Mostly Cloudy
3:23 PM 55.4 °F 48.2 °F 77% 30.10 in 10.0 mi SSE 17.3 mph 21.9 mph N/A   Overcast
3:58 PM 54.7 °F 48.9 °F 81% 30.12 in 10.0 mi South 11.5 mph - N/A   Overcast
4:03 PM 55.4 °F 48.2 °F 77% 30.10 in 10.0 mi SSE 13.8 mph 23.0 mph N/A   Overcast
4:08 PM 55.4 °F 48.2 °F 77% 30.10 in 10.0 mi SSE 13.8 mph 23.0 mph N/A   Overcast
4:18 PM 53.6 °F 48.2 °F 82% 30.11 in 10.0 mi SSE 15.0 mph - N/A   Overcast
4:28 PM 53.6 °F 48.2 °F 82% 30.11 in 10.0 mi SSE 13.8 mph - N/A   Overcast
4:58 PM 53.6 °F 48.0 °F 81% 30.13 in 10.0 mi SSE 15.0 mph - N/A   Overcast
5:03 PM 53.6 °F 48.2 °F 82% 30.11 in 10.0 mi SSE 13.8 mph - N/A   Overcast
5:13 PM 53.6 °F 48.2 °F 82% 30.11 in 10.0 mi SSE 13.8 mph - N/A   Overcast
5:58 PM 54.0 °F 48.0 °F 80% 30.13 in 10.0 mi South 15.0 mph 20.7 mph N/A   Overcast
6:58 PM 53.1 °F 48.4 °F 84% 30.13 in 10.0 mi South 11.5 mph - N/A   Overcast
7:55 PM 51.8 °F 48.2 °F 88% 30.12 in 10.0 mi South 10.4 mph - N/A Rain Light Rain
7:58 PM 52.0 °F 48.2 °F 87% 30.14 in 10.0 mi South 11.5 mph - 0.00 in Rain Light Rain
8:05 PM 51.8 °F 48.2 °F 88% 30.12 in 10.0 mi South 12.7 mph - N/A   Overcast
8:09 PM 51.8 °F 48.2 °F 88% 30.13 in 10.0 mi SSE 11.5 mph - N/A   Light Drizzle
8:14 PM 51.8 °F 48.2 °F 88% 30.13 in 10.0 mi South 12.7 mph - N/A   Light Drizzle
8:19 PM 51.8 °F 48.2 °F 88% 30.13 in 10.0 mi South 10.4 mph - N/A   Overcast
8:25 PM 51.8 °F 48.2 °F 88% 30.13 in 10.0 mi South 12.7 mph - N/A   Light Drizzle
8:30 PM 51.8 °F 48.2 °F 88% 30.13 in 10.0 mi South 9.2 mph - N/A   Light Drizzle
8:35 PM 51.8 °F 48.2 °F 88% 30.13 in 10.0 mi South 11.5 mph - N/A   Light Drizzle
8:38 PM 51.8 °F 48.2 °F 88% 30.13 in 10.0 mi South 13.8 mph - N/A   Overcast
8:53 PM 51.8 °F 48.2 °F 88% 30.13 in 10.0 mi SSE 11.5 mph - N/A   Overcast
8:58 PM 51.4 °F 47.8 °F 87% 30.14 in 10.0 mi SSE 13.8 mph - 0.01 in   Overcast
8:59 PM 51.8 °F 48.2 °F 88% 30.13 in 10.0 mi SSE 11.5 mph - N/A   Light Drizzle
9:10 PM 51.8 °F 48.2 °F 88% 30.13 in 10.0 mi SSE 12.7 mph - N/A   Overcast
9:30 PM 51.8 °F 48.2 °F 88% 30.13 in 10.0 mi SSE 11.5 mph - N/A   Overcast
9:32 PM 51.8 °F 48.2 °F 88% 30.13 in 10.0 mi SSE 10.4 mph - N/A   Light Drizzle
9:42 PM 51.8 °F 48.2 °F 88% 30.13 in 10.0 mi SSE 11.5 mph - N/A   Overcast
9:58 PM 50.7 °F 47.7 °F 89% 30.14 in 10.0 mi SSE 12.7 mph - 0.02 in   Overcast
10:58 PM 50.4 °F 47.3 °F 89% 30.14 in 10.0 mi SSE 11.5 mph - 0.01 in   Overcast
11:58 PM 50.0 °F 48.0 °F 93% 30.16 in 10.0 mi SSE 9.2 mph - 0.01 in   Overcast